Terug naar catalogus

ATLAS 5 CENTAUR DEB

LostHEO
NORAD 47244·DEBRIS·🇺🇸 United States

Gelanceerd Oct 17, 2018 vanaf Cape Canaveral Space Force Station

Loading…

Volgende Passages (komende 24 uur)

TLE

VerouderdSource: Space-Track

Epoch: Jul 1, 2025, 20:19 UTC

1 47244U 18079EE  25182.84705924 -.00000134  00000-0  00000-0 0  9992
2 47244  13.0571  69.6404 4757785 242.4964  61.6315  1.77237774 29708

Volg ATLAS 5 CENTAUR DEB in realtime met AllMySat

Download on the App Store